Wetterdaten: Samstag, 21.12.2019
Datum Zeit Temp. Auen Feucht Auen Luftdruck Regen Richtung Richtung Windben
21.12.2019 00:00 10,4 C 70 % 995,5 hPa 0,0 mm W 275 14,5 km/h (3 Bft)
21.12.2019 00:05 10,3 C 70 % 995,5 hPa 0,0 mm W 271 12,9 km/h (3 Bft)
21.12.2019 00:10 10,2 C 71 % 995,5 hPa 0,0 mm W 267 12,9 km/h (3 Bft)
21.12.2019 00:15 10,0 C 72 % 995,8 hPa 0,0 mm W-NW 286 12,9 km/h (3 Bft)
21.12.2019 00:20 9,9 C 73 % 996,0 hPa 0,0 mm W 267 16,1 km/h (3 Bft)
21.12.2019 00:25 9,9 C 73 % 996,1 hPa 0,0 mm W 268 17,7 km/h (3 Bft)
21.12.2019 00:30 9,9 C 74 % 996,5 hPa 0,0 mm W 275 14,5 km/h (3 Bft)
21.12.2019 00:35 9,9 C 74 % 996,2 hPa 0,0 mm W 270 14,5 km/h (3 Bft)
21.12.2019 00:40 9,9 C 74 % 996,2 hPa 0,0 mm W 261 14,5 km/h (3 Bft)
21.12.2019 00:45 9,9 C 74 % 996,3 hPa 0,0 mm W 263 12,9 km/h (3 Bft)
21.12.2019 00:50 9,9 C 74 % 996,6 hPa 0,0 mm W 281 14,5 km/h (3 Bft)
21.12.2019 00:55 9,9 C 74 % 996,8 hPa 0,0 mm W 267 9,7 km/h (2 Bft)
21.12.2019 01:00 9,9 C 74 % 996,8 hPa 0,0 mm W 271 11,3 km/h (2 Bft)
21.12.2019 01:05 9,8 C 74 % 997,1 hPa 0,0 mm W 273 9,7 km/h (2 Bft)
21.12.2019 01:10 9,8 C 75 % 997,3 hPa 0,0 mm W 280 14,5 km/h (3 Bft)
21.12.2019 01:15 9,8 C 75 % 997,5 hPa 0,0 mm W 263 11,3 km/h (2 Bft)
21.12.2019 01:20 9,7 C 76 % 997,5 hPa 0,0 mm W 272 14,5 km/h (3 Bft)
21.12.2019 01:25 9,7 C 76 % 997,6 hPa 0,0 mm W 266 14,5 km/h (3 Bft)
21.12.2019 01:30 9,6 C 77 % 997,7 hPa 0,0 mm W 275 16,1 km/h (3 Bft)
21.12.2019 01:35 9,6 C 78 % 997,9 hPa 0,0 mm W 262 22,5 km/h (4 Bft)
21.12.2019 01:40 9,4 C 80 % 998,1 hPa 0,2 mm W 267 22,5 km/h (4 Bft)
21.12.2019 01:45 9,2 C 81 % 998,2 hPa 0,0 mm W 265 25,7 km/h (4 Bft)
21.12.2019 01:50 8,9 C 82 % 998,2 hPa 0,2 mm W-NW 282 25,7 km/h (4 Bft)
21.12.2019 01:55 8,7 C 83 % 998,2 hPa 0,0 mm W 268 16,1 km/h (3 Bft)
21.12.2019 02:00 8,6 C 83 % 998,4 hPa 0,0 mm W 267 16,1 km/h (3 Bft)
21.12.2019 02:05 8,4 C 84 % 998,3 hPa 0,0 mm W 261 17,7 km/h (3 Bft)
21.12.2019 02:10 8,2 C 85 % 998,4 hPa 0,2 mm W 265 14,5 km/h (3 Bft)
21.12.2019 02:15 8,1 C 85 % 998,3 hPa 0,0 mm W 263 9,7 km/h (2 Bft)
21.12.2019 02:20 8,0 C 85 % 998,4 hPa 0,0 mm W 264 6,4 km/h (2 Bft)
21.12.2019 02:25 7,9 C 85 % 998,6 hPa 0,0 mm W 263 9,7 km/h (2 Bft)
21.12.2019 02:30 7,8 C 86 % 998,8 hPa 0,0 mm W 269 9,7 km/h (2 Bft)
21.12.2019 02:35 7,7 C 86 % 998,8 hPa 0,0 mm W 271 8,0 km/h (2 Bft)
21.12.2019 02:40 7,6 C 86 % 998,8 hPa 0,0 mm W 274 6,4 km/h (2 Bft)
21.12.2019 02:45 7,6 C 86 % 999,0 hPa 0,2 mm W 274 6,4 km/h (2 Bft)
21.12.2019 02:50 7,5 C 87 % 998,8 hPa 0,0 mm W 274 4,8 km/h (1 Bft)
21.12.2019 02:55 7,4 C 87 % 999,0 hPa 0,0 mm W 274 4,8 km/h (1 Bft)
21.12.2019 03:00 7,4 C 87 % 999,0 hPa 0,0 mm W 272 6,4 km/h (2 Bft)
21.12.2019 03:05 7,3 C 87 % 999,1 hPa 0,0 mm W 271 6,4 km/h (2 Bft)
21.12.2019 03:10 7,3 C 87 % 999,3 hPa 0,0 mm W 271 6,4 km/h (2 Bft)
21.12.2019 03:15 7,3 C 87 % 999,3 hPa 0,0 mm W 271 6,4 km/h (2 Bft)
21.12.2019 03:20 7,2 C 88 % 999,4 hPa 0,0 mm W 271 4,8 km/h (1 Bft)
21.12.2019 03:25 7,2 C 88 % 999,4 hPa 0,0 mm W 273 6,4 km/h (2 Bft)
21.12.2019 03:30 7,2 C 88 % 999,4 hPa 0,0 mm W 264 6,4 km/h (2 Bft)
21.12.2019 03:35 7,2 C 88 % 999,4 hPa 0,0 mm W 264 6,4 km/h (2 Bft)
21.12.2019 03:40 7,2 C 88 % 999,3 hPa 0,0 mm W 270 6,4 km/h (2 Bft)
21.12.2019 03:45 7,1 C 88 % 999,2 hPa 0,2 mm W 270 4,8 km/h (1 Bft)
21.12.2019 03:50 7,1 C 88 % 999,2 hPa 0,0 mm W 269 3,2 km/h (1 Bft)
21.12.2019 03:55 7,0 C 89 % 999,2 hPa 0,0 mm W 270 0,0 km/h (0 Bft)
21.12.2019 04:00 6,9 C 89 % 999,1 hPa 0,0 mm W 269 0,0 km/h (0 Bft)
21.12.2019 04:05 6,9 C 89 % 999,0 hPa 0,2 mm W 270 0,0 km/h (0 Bft)
21.12.2019 04:10 6,7 C 88 % 998,9 hPa 0,0 mm W 270 0,0 km/h (0 Bft)
21.12.2019 04:15 6,6 C 89 % 998,8 hPa 0,0 mm W 270 0,0 km/h (0 Bft)
21.12.2019 04:20 6,4 C 88 % 998,7 hPa 0,0 mm W 270 0,0 km/h (0 Bft)
21.12.2019 04:25 6,4 C 88 % 998,6 hPa 0,0 mm W 270 0,0 km/h (0 Bft)
21.12.2019 04:30 6,3 C 88 % 998,6 hPa 0,0 mm W 270 1,6 km/h (1 Bft)
21.12.2019 04:35 6,2 C 89 % 998,6 hPa 0,0 mm W 275 4,8 km/h (1 Bft)
21.12.2019 04:40 6,2 C 89 % 998,6 hPa 0,0 mm W 276 4,8 km/h (1 Bft)
21.12.2019 04:45 6,1 C 89 % 998,6 hPa 0,0 mm W 276 0,0 km/h (0 Bft)
21.12.2019 04:50 6,0 C 89 % 998,5 hPa 0,0 mm W 276 0,0 km/h (0 Bft)
21.12.2019 04:55 5,9 C 89 % 998,4 hPa 0,0 mm W 276 1,6 km/h (1 Bft)
21.12.2019 05:00 5,9 C 89 % 998,3 hPa 0,0 mm W 276 3,2 km/h (1 Bft)
21.12.2019 05:05 5,9 C 89 % 998,2 hPa 0,0 mm W 276 0,0 km/h (0 Bft)
21.12.2019 05:10 5,8 C 89 % 998,3 hPa 0,0 mm W 276 0,0 km/h (0 Bft)
21.12.2019 05:15 5,8 C 89 % 998,2 hPa 0,0 mm W 276 0,0 km/h (0 Bft)
21.12.2019 05:20 5,8 C 90 % 998,3 hPa 0,0 mm W 276 0,0 km/h (0 Bft)
21.12.2019 05:25 5,8 C 90 % 998,1 hPa 0,0 mm W 276 0,0 km/h (0 Bft)
21.12.2019 05:30 5,8 C 90 % 998,0 hPa 0,0 mm W 276 0,0 km/h (0 Bft)
21.12.2019 05:35 5,7 C 90 % 998,0 hPa 0,0 mm W 276 0,0 km/h (0 Bft)
21.12.2019 05:40 5,7 C 90 % 998,0 hPa 0,0 mm W 276 0,0 km/h (0 Bft)
21.12.2019 05:45 5,7 C 90 % 997,9 hPa 0,0 mm W 276 0,0 km/h (0 Bft)
21.12.2019 05:50 5,7 C 90 % 997,7 hPa 0,0 mm W 276 0,0 km/h (0 Bft)
21.12.2019 05:55 5,7 C 90 % 997,5 hPa 0,0 mm W 276 0,0 km/h (0 Bft)
21.12.2019 06:00 5,7 C 90 % 997,5 hPa 0,0 mm W 276 0,0 km/h (0 Bft)
21.12.2019 06:05 5,6 C 90 % 997,3 hPa 0,0 mm W 276 0,0 km/h (0 Bft)
21.12.2019 06:10 5,6 C 90 % 997,2 hPa 0,0 mm W 276 0,0 km/h (0 Bft)
21.12.2019 06:15 5,6 C 90 % 997,2 hPa 0,0 mm W 276 0,0 km/h (0 Bft)
21.12.2019 06:20 5,6 C 91 % 997,4 hPa 0,0 mm W 276 0,0 km/h (0 Bft)
21.12.2019 06:25 5,6 C 91 % 997,5 hPa 0,0 mm W 276 0,0 km/h (0 Bft)
21.12.2019 06:30 5,6 C 91 % 997,1 hPa 0,0 mm W 276 0,0 km/h (0 Bft)
21.12.2019 06:35 5,6 C 91 % 997,0 hPa 0,0 mm W 276 4,8 km/h (1 Bft)
21.12.2019 06:40 5,6 C 91 % 997,0 hPa 0,0 mm W 276 0,0 km/h (0 Bft)
21.12.2019 06:45 5,6 C 91 % 996,9 hPa 0,0 mm W 276 0,0 km/h (0 Bft)
21.12.2019 06:50 5,5 C 91 % 996,7 hPa 0,0 mm W 276 1,6 km/h (1 Bft)
21.12.2019 06:55 5,5 C 91 % 996,6 hPa 0,0 mm W 276 0,0 km/h (0 Bft)
21.12.2019 07:00 5,4 C 91 % 996,7 hPa 0,0 mm W 276 1,6 km/h (1 Bft)
21.12.2019 07:05 5,4 C 91 % 996,8 hPa 0,0 mm W 276 1,6 km/h (1 Bft)
21.12.2019 07:10 5,3 C 91 % 996,6 hPa 0,0 mm W 276 4,8 km/h (1 Bft)
21.12.2019 07:15 5,3 C 91 % 996,4 hPa 0,0 mm W 276 3,2 km/h (1 Bft)
21.12.2019 07:20 5,3 C 91 % 996,1 hPa 0,0 mm W 276 1,6 km/h (1 Bft)
21.12.2019 07:25 5,3 C 91 % 995,8 hPa 0,0 mm W 276 0,0 km/h (0 Bft)
21.12.2019 07:30 5,3 C 91 % 995,9 hPa 0,0 mm W 276 0,0 km/h (0 Bft)
21.12.2019 07:35 5,2 C 91 % 995,8 hPa 0,0 mm W 276 0,0 km/h (0 Bft)
21.12.2019 07:40 5,2 C 91 % 995,7 hPa 0,0 mm W 276 0,0 km/h (0 Bft)
21.12.2019 07:45 5,2 C 91 % 995,7 hPa 0,0 mm W 276 0,0 km/h (0 Bft)
21.12.2019 07:50 5,1 C 91 % 995,7 hPa 0,0 mm W 276 0,0 km/h (0 Bft)
21.12.2019 07:55 5,0 C 91 % 995,7 hPa 0,0 mm W 276 0,0 km/h (0 Bft)
21.12.2019 08:00 4,9 C 91 % 995,5 hPa 0,0 mm W 276 0,0 km/h (0 Bft)
21.12.2019 08:05 4,9 C 91 % 995,5 hPa 0,0 mm W 276 0,0 km/h (0 Bft)
21.12.2019 08:10 4,8 C 91 % 995,4 hPa 0,0 mm W 276 0,0 km/h (0 Bft)
21.12.2019 08:15 4,8 C 92 % 995,4 hPa 0,0 mm W 276 0,0 km/h (0 Bft)
21.12.2019 08:20 4,8 C 91 % 995,4 hPa 0,0 mm W 276 0,0 km/h (0 Bft)
21.12.2019 08:25 4,7 C 92 % 995,3 hPa 0,0 mm W 276 0,0 km/h (0 Bft)
21.12.2019 08:30 4,7 C 92 % 995,4 hPa 0,0 mm W 276 0,0 km/h (0 Bft)
21.12.2019 08:35 4,8 C 92 % 995,5 hPa 0,0 mm W 276 0,0 km/h (0 Bft)
21.12.2019 08:40 4,8 C 92 % 995,3 hPa 0,0 mm W 276 0,0 km/h (0 Bft)
21.12.2019 08:45 4,8 C 92 % 995,2 hPa 0,0 mm W 281 0,0 km/h (0 Bft)
21.12.2019 08:50 4,8 C 92 % 995,3 hPa 0,0 mm W 281 0,0 km/h (0 Bft)
21.12.2019 08:55 4,7 C 92 % 995,3 hPa 0,0 mm W 281 0,0 km/h (0 Bft)
21.12.2019 09:00 4,7 C 92 % 995,2 hPa 0,0 mm W 281 0,0 km/h (0 Bft)
21.12.2019 09:05 4,7 C 92 % 995,1 hPa 0,0 mm W 281 0,0 km/h (0 Bft)
21.12.2019 09:10 4,8 C 92 % 995,3 hPa 0,0 mm W 281 0,0 km/h (0 Bft)
21.12.2019 09:15 4,8 C 92 % 995,3 hPa 0,0 mm W 281 0,0 km/h (0 Bft)
21.12.2019 09:20 4,8 C 92 % 995,4 hPa 0,0 mm W 281 0,0 km/h (0 Bft)
21.12.2019 09:25 4,8 C 92 % 995,3 hPa 0,0 mm W 281 0,0 km/h (0 Bft)
21.12.2019 09:30 4,9 C 92 % 995,3 hPa 0,0 mm W 281 0,0 km/h (0 Bft)
21.12.2019 09:35 4,9 C 92 % 995,4 hPa 0,0 mm W 281 0,0 km/h (0 Bft)
21.12.2019 09:40 5,0 C 92 % 995,4 hPa 0,0 mm W 281 0,0 km/h (0 Bft)
21.12.2019 09:45 5,1 C 93 % 995,4 hPa 0,0 mm W 281 0,0 km/h (0 Bft)
21.12.2019 09:50 5,2 C 93 % 995,2 hPa 0,0 mm W 281 0,0 km/h (0 Bft)
21.12.2019 09:55 5,3 C 93 % 995,3 hPa 0,0 mm O-SO 117 4,8 km/h (1 Bft)
21.12.2019 10:00 5,4 C 93 % 995,3 hPa 0,0 mm O-SO 120 6,4 km/h (2 Bft)
21.12.2019 10:05 5,4 C 93 % 995,3 hPa 0,2 mm O-SO 120 6,4 km/h (2 Bft)
21.12.2019 10:10 5,5 C 93 % 995,3 hPa 0,0 mm SO 143 6,4 km/h (2 Bft)
21.12.2019 10:15 5,6 C 93 % 995,3 hPa 0,0 mm SO 143 4,8 km/h (1 Bft)
21.12.2019 10:20 5,6 C 93 % 995,3 hPa 0,2 mm SO 143 3,2 km/h (1 Bft)
21.12.2019 10:25 5,6 C 93 % 995,2 hPa 0,0 mm SO 143 4,8 km/h (1 Bft)
21.12.2019 10:30 5,6 C 93 % 995,2 hPa 0,0 mm SO 143 3,2 km/h (1 Bft)
21.12.2019 10:35 5,6 C 93 % 995,1 hPa 0,2 mm SO 143 3,2 km/h (1 Bft)
21.12.2019 10:40 5,5 C 93 % 995,0 hPa 0,0 mm SO 143 3,2 km/h (1 Bft)
21.12.2019 10:45 5,6 C 93 % 995,0 hPa 0,2 mm SO 143 3,2 km/h (1 Bft)
21.12.2019 10:50 5,6 C 93 % 994,9 hPa 0,2 mm SO 143 1,6 km/h (1 Bft)
21.12.2019 10:55 5,6 C 93 % 995,0 hPa 0,0 mm SO 143 0,0 km/h (0 Bft)
21.12.2019 11:00 5,6 C 93 % 995,0 hPa 0,0 mm SO 143 0,0 km/h (0 Bft)
21.12.2019 11:05 5,6 C 93 % 994,9 hPa 0,2 mm SO 143 0,0 km/h (0 Bft)
21.12.2019 11:10 5,6 C 93 % 995,0 hPa 0,0 mm SO 143 0,0 km/h (0 Bft)
21.12.2019 11:15 5,6 C 93 % 994,9 hPa 0,0 mm SO 143 3,2 km/h (1 Bft)
21.12.2019 11:20 5,6 C 93 % 995,0 hPa 0,2 mm SO 143 3,2 km/h (1 Bft)
21.12.2019 11:25 5,7 C 93 % 995,0 hPa 0,0 mm SO 143 3,2 km/h (1 Bft)
21.12.2019 11:30 5,7 C 93 % 994,9 hPa 0,2 mm SO 143 0,0 km/h (0 Bft)
21.12.2019 11:35 5,7 C 93 % 994,8 hPa 0,2 mm SO 143 0,0 km/h (0 Bft)
21.12.2019 11:40 5,8 C 93 % 994,7 hPa 0,0 mm SO 143 0,0 km/h (0 Bft)
21.12.2019 11:45 5,8 C 93 % 994,5 hPa 0,2 mm SO 143 0,0 km/h (0 Bft)
21.12.2019 11:50 5,8 C 93 % 994,5 hPa 0,2 mm SO 143 0,0 km/h (0 Bft)
21.12.2019 11:55 5,8 C 93 % 994,5 hPa 0,0 mm SO 143 0,0 km/h (0 Bft)
21.12.2019 12:00 5,8 C 93 % 994,5 hPa 0,2 mm SO 143 1,6 km/h (1 Bft)
21.12.2019 12:05 5,8 C 93 % 994,4 hPa 0,2 mm SO 143 3,2 km/h (1 Bft)
21.12.2019 12:10 5,8 C 93 % 994,4 hPa 0,0 mm W-NW 290 4,8 km/h (1 Bft)
21.12.2019 12:15 5,9 C 93 % 994,2 hPa 0,2 mm W-NW 290 4,8 km/h (1 Bft)
21.12.2019 12:20 5,9 C 93 % 994,2 hPa 0,2 mm W-NW 290 3,2 km/h (1 Bft)
21.12.2019 12:25 5,9 C 93 % 994,1 hPa 0,2 mm W-NW 290 3,2 km/h (1 Bft)
21.12.2019 12:30 5,9 C 93 % 994,1 hPa 0,0 mm W-NW 290 1,6 km/h (1 Bft)
21.12.2019 12:35 5,9 C 93 % 993,9 hPa 0,2 mm W-NW 290 3,2 km/h (1 Bft)
21.12.2019 12:40 6,0 C 93 % 993,9 hPa 0,2 mm W-NW 290 1,6 km/h (1 Bft)
21.12.2019 12:45 6,0 C 93 % 993,8 hPa 0,2 mm W-NW 290 3,2 km/h (1 Bft)
21.12.2019 12:50 6,0 C 93 % 993,7 hPa 0,0 mm W-NW 290 3,2 km/h (1 Bft)
21.12.2019 12:55 6,1 C 94 % 993,6 hPa 0,2 mm W-NW 290 4,8 km/h (1 Bft)
21.12.2019 13:00 6,1 C 94 % 993,5 hPa 0,0 mm W-NW 290 1,6 km/h (1 Bft)
21.12.2019 13:05 6,1 C 93 % 993,4 hPa 0,2 mm W-NW 290 6,4 km/h (2 Bft)
21.12.2019 13:10 6,1 C 93 % 993,4 hPa 0,0 mm W-NW 290 6,4 km/h (2 Bft)
21.12.2019 13:15 6,1 C 93 % 993,3 hPa 0,2 mm W 263 6,4 km/h (2 Bft)
21.12.2019 13:20 6,1 C 93 % 993,2 hPa 0,2 mm W 266 6,4 km/h (2 Bft)
21.12.2019 13:25 6,1 C 93 % 993,1 hPa 0,2 mm W 265 6,4 km/h (2 Bft)
21.12.2019 13:30 6,1 C 94 % 993,2 hPa 0,0 mm W 265 8,0 km/h (2 Bft)
21.12.2019 13:35 6,1 C 94 % 993,2 hPa 0,4 mm W 265 6,4 km/h (2 Bft)
21.12.2019 13:40 6,0 C 94 % 993,2 hPa 0,0 mm W 267 8,0 km/h (2 Bft)
21.12.2019 13:45 6,0 C 94 % 993,4 hPa 0,2 mm W 267 4,8 km/h (1 Bft)
21.12.2019 13:50 6,0 C 93 % 993,3 hPa 0,0 mm W 267 6,4 km/h (2 Bft)
21.12.2019 13:55 5,9 C 93 % 993,4 hPa 0,2 mm W 267 8,0 km/h (2 Bft)
21.12.2019 14:00 5,9 C 93 % 993,5 hPa 0,2 mm W 269 8,0 km/h (2 Bft)
21.12.2019 14:05 5,9 C 93 % 993,6 hPa 0,2 mm W 269 6,4 km/h (2 Bft)
21.12.2019 14:10 5,9 C 93 % 993,7 hPa 0,0 mm W 269 6,4 km/h (2 Bft)
21.12.2019 14:15 5,8 C 93 % 993,8 hPa 0,4 mm W 263 9,7 km/h (2 Bft)
21.12.2019 14:20 5,8 C 93 % 993,9 hPa 0,2 mm W 263 8,0 km/h (2 Bft)
21.12.2019 14:25 5,8 C 93 % 994,1 hPa 0,2 mm W 264 8,0 km/h (2 Bft)
21.12.2019 14:30 5,8 C 94 % 994,2 hPa 0,4 mm W 263 9,7 km/h (2 Bft)
21.12.2019 14:35 5,8 C 94 % 994,3 hPa 0,2 mm W 265 8,0 km/h (2 Bft)
21.12.2019 14:40 5,8 C 94 % 994,4 hPa 0,4 mm W 266 8,0 km/h (2 Bft)
21.12.2019 14:45 5,7 C 94 % 994,4 hPa 0,4 mm W 275 9,7 km/h (2 Bft)
21.12.2019 14:50 5,7 C 94 % 994,5 hPa 0,4 mm W 277 11,3 km/h (2 Bft)
21.12.2019 14:55 5,6 C 94 % 994,6 hPa 0,2 mm W 279 11,3 km/h (2 Bft)
21.12.2019 15:00 5,6 C 93 % 994,8 hPa 0,4 mm W-SW 248 14,5 km/h (3 Bft)
21.12.2019 15:05 5,4 C 93 % 994,9 hPa 0,2 mm W 275 12,9 km/h (3 Bft)
21.12.2019 15:10 5,3 C 94 % 995,0 hPa 0,4 mm W-SW 248 14,5 km/h (3 Bft)
21.12.2019 15:15 5,2 C 93 % 995,1 hPa 0,2 mm W 277 17,7 km/h (3 Bft)
21.12.2019 15:20 5,1 C 93 % 995,2 hPa 0,2 mm W 281 17,7 km/h (3 Bft)
21.12.2019 15:25 5,0 C 94 % 995,3 hPa 0,2 mm W-SW 251 14,5 km/h (3 Bft)
21.12.2019 15:30 4,9 C 93 % 995,3 hPa 0,2 mm W 261 16,1 km/h (3 Bft)
21.12.2019 15:35 4,8 C 94 % 995,3 hPa 0,0 mm W 267 14,5 km/h (3 Bft)
21.12.2019 15:40 4,7 C 94 % 995,3 hPa 0,2 mm W 266 14,5 km/h (3 Bft)
21.12.2019 15:45 4,6 C 93 % 995,4 hPa 0,2 mm W 263 8,0 km/h (2 Bft)
21.12.2019 15:50 4,6 C 93 % 995,4 hPa 0,2 mm W 273 12,9 km/h (3 Bft)
21.12.2019 15:55 4,6 C 94 % 995,4 hPa 0,0 mm W 261 14,5 km/h (3 Bft)
21.12.2019 16:00 4,5 C 94 % 995,5 hPa 0,2 mm W 263 12,9 km/h (3 Bft)
21.12.2019 16:05 4,4 C 94 % 995,5 hPa 0,0 mm W 267 11,3 km/h (2 Bft)
21.12.2019 16:10 4,4 C 94 % 995,4 hPa 0,2 mm W 277 9,7 km/h (2 Bft)
21.12.2019 16:15 4,3 C 94 % 995,5 hPa 0,0 mm W-SW 253 14,5 km/h (3 Bft)
21.12.2019 16:20 4,3 C 94 % 995,5 hPa 0,2 mm W 277 12,9 km/h (3 Bft)
21.12.2019 16:25 4,2 C 93 % 995,5 hPa 0,0 mm W-NW 284 14,5 km/h (3 Bft)
21.12.2019 16:30 4,1 C 93 % 995,6 hPa 0,0 mm W 276 16,1 km/h (3 Bft)
21.12.2019 16:35 3,9 C 94 % 995,6 hPa 0,0 mm W 275 17,7 km/h (3 Bft)
21.12.2019 16:40 3,9 C 93 % 995,6 hPa 0,2 mm W 259 12,9 km/h (3 Bft)
21.12.2019 16:45 3,8 C 93 % 995,6 hPa 0,0 mm W-NW 283 9,7 km/h (2 Bft)
21.12.2019 16:50 3,8 C 94 % 995,6 hPa 0,0 mm W 267 9,7 km/h (2 Bft)
21.12.2019 16:55 3,7 C 94 % 995,5 hPa 0,2 mm W 268 9,7 km/h (2 Bft)
21.12.2019 17:00 3,7 C 94 % 995,5 hPa 0,0 mm W 275 8,0 km/h (2 Bft)
21.12.2019 17:05 3,7 C 94 % 995,5 hPa 0,0 mm W 271 8,0 km/h (2 Bft)
21.12.2019 17:10 3,6 C 94 % 995,4 hPa 0,0 mm W 261 8,0 km/h (2 Bft)
21.12.2019 17:15 3,6 C 94 % 995,4 hPa 0,0 mm W 260 6,4 km/h (2 Bft)
21.12.2019 17:20 3,6 C 94 % 995,5 hPa 0,2 mm W 260 6,4 km/h (2 Bft)
21.12.2019 17:25 3,6 C 94 % 995,5 hPa 0,0 mm W 260 6,4 km/h (2 Bft)
21.12.2019 17:30 3,6 C 94 % 995,4 hPa 0,0 mm W 260 4,8 km/h (1 Bft)
21.12.2019 17:35 3,6 C 94 % 995,3 hPa 0,0 mm W 260 4,8 km/h (1 Bft)
21.12.2019 17:40 3,6 C 94 % 995,2 hPa 0,0 mm W 261 4,8 km/h (1 Bft)
21.12.2019 17:45 3,6 C 94 % 995,2 hPa 0,0 mm W 261 4,8 km/h (1 Bft)
21.12.2019 17:50 3,6 C 94 % 995,3 hPa 0,0 mm W 261 3,2 km/h (1 Bft)
21.12.2019 17:55 3,6 C 94 % 995,3 hPa 0,0 mm W 261 4,8 km/h (1 Bft)
21.12.2019 18:00 3,6 C 94 % 995,3 hPa 0,0 mm W 261 4,8 km/h (1 Bft)
21.12.2019 18:05 3,6 C 94 % 995,2 hPa 0,0 mm W 261 1,6 km/h (1 Bft)
21.12.2019 18:10 3,6 C 94 % 995,3 hPa 0,0 mm W 261 1,6 km/h (1 Bft)
21.12.2019 18:15 3,6 C 94 % 995,1 hPa 0,0 mm W 261 0,0 km/h (0 Bft)
21.12.2019 18:20 3,6 C 94 % 995,2 hPa 0,0 mm W 261 0,0 km/h (0 Bft)
21.12.2019 18:25 3,6 C 94 % 995,2 hPa 0,0 mm W 261 0,0 km/h (0 Bft)
21.12.2019 18:30 3,6 C 94 % 995,1 hPa 0,0 mm W 261 0,0 km/h (0 Bft)
21.12.2019 18:35 3,6 C 94 % 995,1 hPa 0,0 mm W 261 0,0 km/h (0 Bft)
21.12.2019 18:40 3,6 C 94 % 995,1 hPa 0,0 mm W 261 0,0 km/h (0 Bft)
21.12.2019 18:45 3,6 C 94 % 995,1 hPa 0,0 mm W 261 0,0 km/h (0 Bft)
21.12.2019 18:50 3,6 C 94 % 995,0 hPa 0,0 mm W 261 0,0 km/h (0 Bft)
21.12.2019 18:55 3,6 C 94 % 995,0 hPa 0,0 mm W 261 0,0 km/h (0 Bft)
21.12.2019 19:00 3,6 C 94 % 994,9 hPa 0,0 mm W 261 0,0 km/h (0 Bft)
21.12.2019 19:05 3,6 C 94 % 995,1 hPa 0,0 mm W 261 0,0 km/h (0 Bft)
21.12.2019 19:10 3,6 C 94 % 995,0 hPa 0,0 mm W 261 0,0 km/h (0 Bft)
21.12.2019 19:15 3,5 C 94 % 995,1 hPa 0,0 mm W 261 1,6 km/h (1 Bft)
21.12.2019 19:20 3,5 C 94 % 995,1 hPa 0,0 mm W 261 3,2 km/h (1 Bft)
21.12.2019 19:25 3,5 C 94 % 995,2 hPa 0,0 mm W 261 3,2 km/h (1 Bft)
21.12.2019 19:30 3,5 C 94 % 995,2 hPa 0,0 mm W 261 0,0 km/h (0 Bft)
21.12.2019 19:35 3,4 C 94 % 995,2 hPa 0,0 mm W 261 0,0 km/h (0 Bft)
21.12.2019 19:40 3,4 C 94 % 995,1 hPa 0,0 mm W 261 0,0 km/h (0 Bft)
21.12.2019 19:45 3,4 C 94 % 995,1 hPa 0,0 mm W 261 0,0 km/h (0 Bft)
21.12.2019 19:50 3,4 C 94 % 995,2 hPa 0,0 mm W 261 0,0 km/h (0 Bft)
21.12.2019 19:55 3,4 C 94 % 995,2 hPa 0,0 mm W 261 0,0 km/h (0 Bft)
21.12.2019 20:00 3,4 C 94 % 995,1 hPa 0,0 mm W 261 0,0 km/h (0 Bft)
21.12.2019 20:05 3,4 C 94 % 995,1 hPa 0,0 mm W 261 0,0 km/h (0 Bft)
21.12.2019 20:10 3,4 C 94 % 994,9 hPa 0,0 mm W 261 0,0 km/h (0 Bft)
21.12.2019 20:15 3,3 C 94 % 994,8 hPa 0,0 mm W 261 0,0 km/h (0 Bft)
21.12.2019 20:20 3,3 C 94 % 994,8 hPa 0,0 mm W 261 0,0 km/h (0 Bft)
21.12.2019 20:25 3,3 C 94 % 994,9 hPa 0,0 mm W 261 0,0 km/h (0 Bft)
21.12.2019 20:30 3,3 C 94 % 994,8 hPa 0,0 mm W 261 0,0 km/h (0 Bft)
21.12.2019 20:35 3,2 C 94 % 994,8 hPa 0,0 mm W 261 0,0 km/h (0 Bft)
21.12.2019 20:40 3,2 C 94 % 994,9 hPa 0,0 mm W 261 0,0 km/h (0 Bft)
21.12.2019 20:45 3,2 C 94 % 994,8 hPa 0,0 mm W 261 0,0 km/h (0 Bft)
21.12.2019 20:50 3,2 C 94 % 994,7 hPa 0,0 mm W 261 0,0 km/h (0 Bft)
21.12.2019 20:55 3,1 C 94 % 994,5 hPa 0,0 mm W 261 0,0 km/h (0 Bft)
21.12.2019 21:00 3,1 C 94 % 994,4 hPa 0,0 mm W 261 0,0 km/h (0 Bft)
21.12.2019 21:05 2,9 C 94 % 994,4 hPa 0,0 mm W 261 0,0 km/h (0 Bft)
21.12.2019 21:10 2,9 C 94 % 994,2 hPa 0,0 mm W 261 0,0 km/h (0 Bft)
21.12.2019 21:15 2,8 C 94 % 994,3 hPa 0,0 mm W 261 0,0 km/h (0 Bft)
21.12.2019 21:20 2,7 C 94 % 994,3 hPa 0,0 mm W 261 0,0 km/h (0 Bft)
21.12.2019 21:25 2,5 C 94 % 994,1 hPa 0,0 mm W 261 0,0 km/h (0 Bft)
21.12.2019 21:30 2,4 C 94 % 994,0 hPa 0,0 mm W 261 0,0 km/h (0 Bft)
21.12.2019 21:35 2,3 C 94 % 993,9 hPa 0,0 mm W 261 0,0 km/h (0 Bft)
21.12.2019 21:40 2,2 C 94 % 993,9 hPa 0,0 mm W 261 0,0 km/h (0 Bft)
21.12.2019 21:45 2,1 C 94 % 993,8 hPa 0,0 mm W 261 0,0 km/h (0 Bft)
21.12.2019 21:50 2,0 C 94 % 993,6 hPa 0,0 mm W 261 0,0 km/h (0 Bft)
21.12.2019 21:55 1,9 C 94 % 993,6 hPa 0,0 mm W 261 0,0 km/h (0 Bft)
21.12.2019 22:00 1,8 C 94 % 993,6 hPa 0,0 mm W 261 0,0 km/h (0 Bft)
21.12.2019 22:05 1,8 C 94 % 993,4 hPa 0,0 mm W 261 0,0 km/h (0 Bft)
21.12.2019 22:10 1,7 C 94 % 993,2 hPa 0,0 mm W 261 1,6 km/h (1 Bft)
21.12.2019 22:15 1,6 C 94 % 993,1 hPa 0,0 mm W 261 1,6 km/h (1 Bft)
21.12.2019 22:20 1,6 C 94 % 993,1 hPa 0,0 mm W 261 0,0 km/h (0 Bft)
21.12.2019 22:25 1,6 C 94 % 993,1 hPa 0,0 mm W 261 0,0 km/h (0 Bft)
21.12.2019 22:30 1,5 C 94 % 992,9 hPa 0,0 mm W 261 0,0 km/h (0 Bft)
21.12.2019 22:35 1,4 C 94 % 992,9 hPa 0,0 mm W 261 0,0 km/h (0 Bft)
21.12.2019 22:40 1,4 C 94 % 992,8 hPa 0,0 mm W 261 0,0 km/h (0 Bft)
21.12.2019 22:45 1,3 C 94 % 992,7 hPa 0,0 mm W 261 0,0 km/h (0 Bft)
21.12.2019 22:50 1,3 C 94 % 992,7 hPa 0,0 mm W 261 0,0 km/h (0 Bft)
21.12.2019 22:55 1,2 C 94 % 992,6 hPa 0,0 mm W 261 0,0 km/h (0 Bft)
21.12.2019 23:00 1,1 C 94 % 992,7 hPa 0,0 mm W 261 0,0 km/h (0 Bft)
21.12.2019 23:05 1,1 C 94 % 992,4 hPa 0,0 mm W 261 0,0 km/h (0 Bft)
21.12.2019 23:10 1,0 C 94 % 992,2 hPa 0,0 mm W 261 0,0 km/h (0 Bft)
21.12.2019 23:15 0,8 C 94 % 992,2 hPa 0,0 mm W 261 0,0 km/h (0 Bft)
21.12.2019 23:20 0,7 C 94 % 992,2 hPa 0,0 mm W 261 1,6 km/h (1 Bft)
21.12.2019 23:25 0,6 C 93 % 992,3 hPa 0,0 mm W 261 0,0 km/h (0 Bft)
21.12.2019 23:30 0,6 C 94 % 992,2 hPa 0,0 mm W 261 0,0 km/h (0 Bft)
21.12.2019 23:35 0,5 C 94 % 992,1 hPa 0,0 mm W 261 1,6 km/h (1 Bft)
21.12.2019 23:40 0,5 C 94 % 992,1 hPa 0,0 mm W 261 3,2 km/h (1 Bft)
21.12.2019 23:45 0,5 C 94 % 992,2 hPa 0,0 mm W 261 1,6 km/h (1 Bft)
21.12.2019 23:50 0,4 C 94 % 992,2 hPa 0,0 mm W 261 1,6 km/h (1 Bft)
21.12.2019 23:55 0,4 C 94 % 992,2 hPa 0,0 mm W 261 4,8 km/h (1 Bft)
_ Min-Zeit 23:50 00:00 23:35 - - - 03:55
Minimum _ 0,4 C 70 % 992,1 hPa - - - 0,0 km/h (0 Bft)
_ Max-Zeit 00:00 12:55 03:20 13:35 - - 01:45
Maximum _ 10,6 C 94 % 999,4 hPa 0,4 mm - - 25,7 km/h
W-SW (4 Bft)
Durchschnitt _ 5,2 C 91 % 995,6 hPa #13,6 mm W - 4,5 km/h (1 Bft)